Location: Unspecified
(0.0000°N, 0.0000°E)
Time: 13:14:09
(UTC+00:00)

Vanguard 2 - Pass Details

Date: 22 September 2019
Orbit: 554 x 2937 km, 32.9° (Epoch: 13 October)

Event Time Altitude Azimuth Distance (km) Brightness Sun altitude
Rises 18:48:50 0° 211° (SSW) 5,131 12.2 -14.0°
Reaches altitude 10° 18:53:22 10° 194° (SSW) 4,547 11.6 -15.2°
Maximum altitude 19:02:29 20° 151° (SSE) 4,380 11.1 -17.4°
Enters shadow 19:09:52 15° 121° (ESE) 5,129 11.2 -19.3°
Drops below altitude 10° 19:13:34 10° 110° (ESE) 5,677 - -20.2°
Sets 19:20:13 0° 95° (E) 6,789 - -21.9°
